Hourly Weather Roundup
Issued by NWS Central Illinois

Home | Current Version | Previous Version | Text Only | Print | Product List | Glossary On
Versions: 1 2 3 4 5 6 7 8 9 10 11 12 13 14 15 16 17 18 19 20 21 22 23 24 25 26 27 28 29 30 31 32 33 34 35 36 37 38 39 40 41 42 43 44 45 46 47 48 49 50
000
NZUS43 KILX 311610
HWRILX

AREA WEATHER ROUNDUP
NATIONAL WEATHER SERVICE, LINCOLN IL
1100 AM CDT THU JUL 31 2014


CITY           SKY/WX    TMP DP  RH WIND       PRES   REMARKS
BLOOMINGTON    SUNNY     76  58  53 W8        30.11S
CHAMPAIGN      SUNNY     76  63  64 W6        30.11R
DECATUR        SUNNY     78  62  57 W6        30.11R HX  80
FLORA          SUNNY     77  60  55 CALM      30.11R
GALESBURG      SUNNY     79  64  61 W7        30.10S HX  80
JACKSONVILLE   SUNNY     79  65  60 CALM      30.11S HX  81
LACON          SUNNY     76  62  61 SW7       30.08R
LAWRENCEVILLE  SUNNY     78  60  53 VRB3      30.10F
LITCHFIELD     SUNNY     77  60  54 W6        30.11S
$$


CITY           SKY/WX    TMP DP  RH WIND       PRES   REMARKS
LINCOLN        SUNNY     79  62  56 CALM      30.07S HX  81
MACOMB         SUNNY     75  63  64 W5        30.12S
MATTOON        SUNNY     78  61  55 W6        30.10S HX  80
MT CARMEL AP   SUNNY     81  66  61 CALM      30.10F HX  83
OLNEY-NOBLE AP SUNNY     77  63  61 CALM      30.11S
PARIS          SUNNY     76  66  70 CALM      30.11S
PEORIA         SUNNY     79  62  56 VRB7      30.09S HX  80
PONTIAC        SUNNY     79  63  57 W8        30.08S HX  80
RANTOUL        SUNNY     78  60  53 W3        30.11R
ROBINSON       SUNNY     80  64  57 CALM      30.11S HX  82
SPRINGFIELD    SUNNY     79  61  53 VRB5      30.10S HX  80
TAYLORVILLE    SUNNY     75  61  60 W5        30.10S
$$

...REGIONAL REPORTS...


CITY           SKY/WX    TMP DP  RH WIND       PRES   REMARKS
CHICAGO O`HARE SUNNY     77  57  50 W9        30.04S
KANKAKEE       SUNNY     76  61  59 W9        30.09S
MOLINE         SUNNY     78  60  53 W8        30.08S
MOUNT VERNON   SUNNY     79  64  61 S7        30.12S HX  81
PITTSFIELD     MOSUNNY   78  61  54 CALM      30.12R HX  80
QUINCY         SUNNY     76  60  57 NW3       30.11R
ROCKFORD       SUNNY     77  61  57 SW8       30.07R
$$


CITY           SKY/WX    TMP DP  RH WIND       PRES   REMARKS
BURLINGTON     SUNNY     76  64  66 VRB7      30.10R
CEDAR RAPIDS   SUNNY     76  61  59 NW9       30.08F
DES MOINES     MOSUNNY   77  60  55 W5        30.10S
KIRKSVILLE     SUNNY     78  58  49 W5        30.13R
OTTUMWA        SUNNY     74  60  61 W6        30.11R
ST LOUIS       MOSUNNY   80  59  48 VRB3      30.10S HX  81
$$


CITY           SKY/WX    TMP DP  RH WIND       PRES   REMARKS
TERRE HAUTE    SUNNY     78  60  53 SW8       30.10S
EVANSVILLE     SUNNY     78  60  53 VRB3      30.11S
INDIANAPOLIS   MOSUNNY   75  61  61 SW6       30.10S
LAFAYETTE      SUNNY     76  60  57 W8        30.08S
MADISON        SUNNY     77  61  57 VRB6      30.03S
MILWAUKEE      SUNNY     75  59  57 W10       30.01S
$$





USA.gov is the U.S. government's official web portal to all federal, state and local government web resources and services.